Regional Weather Roundup
Issued by NWS Spokane, WA

Home | Current Version | Previous Version | Text Only | Print | Product List | Glossary On
Versions: 1 2 3 4 5 6 7 8 9 10 11 12 13 14 15 16 17 18 19 20 21 22 23 24 25 26 27 28 29 30 31 32 33 34 35 36 37 38 39 40 41 42 43 44 45 46 47 48 49 50
000
NZUS01 KOTX 031710
RWROTX
EASTERN WASHINGTON/NORTHERN IDAHO ROUNDUP
NATIONAL WEATHER SERVICE, SPOKANE WA
1000 AM PDT THU SEP 03 2015

Note: "fair" indicated few or no clouds below 12,000 feet with no
significant weather and/or obstructions to visibility.

...NORTHEAST WASHINGTON AND NORTHERN IDAHO PANHANDLE...

CITY           SKY/WX    TMP DP  RH WIND       PRES   REMARKS
SPOKANE INTL   MOSUNNY   55  38  52 SE5       29.96R
SPOKANE DOWNTO MOSUNNY   59  37  44 SE6       29.96S
COEUR D ALENE  SUNNY     57  37  47 S8G16     29.96S
DEER PARK      SUNNY     56  37  49 S8        29.96R
SANDPOINT      CLOUDY    54  45  71 CALM      29.96R
BONNERS FERRY  CLOUDY    50  46  87 N3        29.96S

...SOUTHEAST WASHINGTON AND SOUTHERN IDAHO PANHANDLE...

CITY           SKY/WX    TMP DP  RH WIND       PRES   REMARKS
WALLA WALLA    SUNNY     61  42  49 S13       29.99S
PULLMAN/MOSCOW MOSUNNY   55  37  50 W9        30.00S
LEWISTON       CLOUDY    55  48  77 SE9       29.98R
LOWELL           N/A     56  53  90 CALM      29.98S

...COLUMBIA BASIN...

CITY           SKY/WX    TMP DP  RH WIND       PRES   REMARKS
EPHRATA        SUNNY     62  34  35 CALM      29.93S
MOSES LAKE     SUNNY     61  37  41 SW8       29.95S
TRI CITIES     SUNNY     63  40  42 S3        29.98S
HERMISTON      SUNNY     62  42  47 W12       29.98F
PENDLETON      MOSUNNY   60  38  43 W13       29.99S

...EAST SLOPES CASCADES...

CITY           SKY/WX    TMP DP  RH WIND       PRES   REMARKS
THE DALLES     SUNNY     64  43  46 NW14      30.00F
YAKIMA         SUNNY     61  38  42 CALM      29.98S
ELLENSBURG     SUNNY     60  36  40 NW22G31   29.96S
WENATCHEE      SUNNY     62  34  35 NW15      29.94S
OMAK           SUNNY     58  34  40 CALM      29.92F

...SOUTHERN BRITISH COLUMBIA...

CITY           SKY/WX    TMP DP  RH WIND       PRES   REMARKS
PENTICTON      MOSUNNY   59  39  47 N5        29.94F
CASTLEGAR      PTSUNNY   52  45  76 S2        29.94F
CRANBROOK      PTSUNNY   48  45  87 NE3       29.98R

...WESTERN MONTANA...

CITY           SKY/WX    TMP DP  RH WIND       PRES   REMARKS
MISSOULA       LGT RAIN  50  48  93 NW8       29.99R

...NEIGHBORING CITIES...

CITY           SKY/WX    TMP DP  RH WIND       PRES   REMARKS
SEATTLE        PTSUNNY   56  49  77 SW7       30.03S
CALGARY        MOSUNNY   52  37  58 NE6       29.95F



USA.gov is the U.S. government's official web portal to all federal, state and local government web resources and services.